Change the Weather History Date:

Wednesday, April 3, 2013

  Actual Average Record
Temperature  
Mean Temperature 43 °F 42 °F  
Max Temperature 64 °F 58 °F 70 °F (1976)
Min Temperature 21 °F 26 °F 13 °F (1974)
Degree Days  
Heating Degree Days 22 23  
Month to date heating degree days 62 69  
Since 1 July heating degree days 6201 6098  
Cooling Degree Days 0 0  
Month to date cooling degree days 0 0  
Year to date cooling degree days 0 0  
Moisture  
Dew Point 18 °F    
Average Humidity 48    
Maximum Humidity 84    
Minimum Humidity 12    
Precipitation  
Precipitation 0.00 in 0.04 in 1.65 in (2004)
Month to date precipitation T 0.11  
Year to date precipitation 2.61 3.64  
Sea Level Pressure  
Sea Level Pressure 30.06 in    
Wind  
Wind Speed 6 mph (NNW)    
Max Wind Speed 21 mph    
Max Gust Speed 28 mph    
Visibility 10 miles    
Events      
T = Trace of Precipitation, MM = Missing Value Source: NWS Daily Summary

Daily Weather History Graph

Daily Weather History Graph

Search for Another Location

Airport or City:

Trip Planner

Search our weather history database for the weather conditions in past years. The results will help you decide how hot, cold, wet, or windy it might be!

Date:

Astronomy

Apr. 03, 2013 Rise Set
Actual Time 6:53 AM MDT 7:35 PM MDT
Civil Twilight 6:27 AM MDT 8:01 PM MDT
Nautical Twilight 5:56 AM MDT 8:33 PM MDT
Astronomical Twilight 5:24 AM MDT 9:05 PM MDT
Moon 2:27 AM MDT (4/3) 12:59 PM MDT (4/3)
Length of Visible Light 13h 34m
Length of Day
12h 42m
Last Quarter, 44% of the Moon is Illuminated
Apr 3
Last Quarter
Apr 10
New
Apr 18
First Quarter
Apr 25
Full
May 2
Last Quarter

Hourly Weather History & Observations

Time (MDT) Temp. Windchill Dew Point Humidity Pressure Visibility Wind Dir Wind Speed Gust Speed Precip Events Conditions
12:53 AM 28.9 °F 21.9 °F 21.9 °F 75% 29.99 in 10.0 mi East 6.9 mph - N/A   Clear
1:53 AM 30.0 °F - 23.0 °F 75% 30.01 in 10.0 mi Calm Calm - N/A   Clear
2:53 AM 27.0 °F 21.6 °F 19.9 °F 75% 30.02 in 10.0 mi NNE 4.6 mph - N/A   Clear
3:53 AM 27.0 °F 23.0 °F 19.9 °F 75% 30.02 in 10.0 mi NNE 3.5 mph - N/A   Clear
4:53 AM 24.1 °F 19.7 °F 18.0 °F 77% 30.07 in 10.0 mi NE 3.5 mph - N/A   Clear
5:53 AM 26.1 °F 18.4 °F 19.0 °F 75% 30.10 in 10.0 mi North 6.9 mph - N/A   Clear
6:53 AM 21.9 °F 15.7 °F 18.0 °F 85% 30.14 in 10.0 mi NE 4.6 mph - N/A   Clear
7:53 AM 28.0 °F 24.2 °F 19.9 °F 72% 30.13 in 10.0 mi North 3.5 mph - N/A   Clear
8:53 AM 36.0 °F - 21.9 °F 57% 30.12 in 10.0 mi Calm Calm - N/A   Clear
9:53 AM 42.1 °F 40.2 °F 26.1 °F 53% 30.11 in 10.0 mi Variable 3.5 mph - N/A   Clear
10:53 AM 48.0 °F - 24.1 °F 39% 30.10 in 10.0 mi Variable 4.6 mph - N/A   Clear
11:53 AM 52.0 °F - 19.9 °F 28% 30.08 in 10.0 mi Calm Calm - N/A   Clear
12:53 PM 55.0 °F - 19.9 °F 25% 30.06 in 10.0 mi South 9.2 mph - N/A   Clear
1:53 PM 57.9 °F - 21.9 °F 25% 30.03 in 10.0 mi SW 9.2 mph 23.0 mph N/A   Clear
2:53 PM 59.0 °F - 21.9 °F 24% 30.02 in 10.0 mi WSW 12.7 mph 24.2 mph N/A   Clear
3:53 PM 62.1 °F - 21.9 °F 21% 29.99 in 10.0 mi SW 16.1 mph 20.7 mph N/A   Clear
4:53 PM 62.1 °F - 19.0 °F 19% 29.99 in 10.0 mi West 12.7 mph 26.5 mph N/A   Partly Cloudy
5:53 PM 63.0 °F - 12.9 °F 14% 29.96 in 10.0 mi NW 15.0 mph 23.0 mph N/A   Partly Cloudy
6:13 PM 62.6 °F - 8.6 °F 12% 30.04 in 10.0 mi North 17.3 mph 27.6 mph N/A   Partly Cloudy
6:53 PM 59.0 °F - 7.0 °F 13% 30.02 in 10.0 mi NNW 12.7 mph 20.7 mph N/A   Clear
7:53 PM 53.1 °F - 10.0 °F 18% 30.05 in 10.0 mi NNW 8.1 mph - N/A   Clear
8:53 PM 48.9 °F - 10.0 °F 21% 30.07 in 10.0 mi NNW 3.5 mph - N/A   Clear
9:53 PM 48.9 °F - 12.0 °F 23% 30.09 in 10.0 mi NNW 3.5 mph - N/A   Clear
10:53 PM 46.9 °F - 12.9 °F 25% 30.08 in 10.0 mi Calm Calm - N/A   Clear
11:53 PM 39.9 °F - 12.9 °F 33% 30.11 in 10.0 mi Calm Calm - N/A   Clear